Regional Weather Roundup
Issued by NWS

Home | Current Version | Previous Version | Text Only | Print | Product List | Glossary On
Versions: 1 2 3 4 5 6 7 8 9 10 11 12 13 14 15 16 17 18 19 20 21 22 23 24 25 26 27 28 29 30 31 32 33 34 35 36 37 38 39 40 41 42 43 44 45 46 47 48 49 50
000
ASUS42 KFFC 260403
RWRGA
WEATHER ROUNDUP FOR GEORGIA
NATIONAL WEATHER SERVICE PEACHTREE CITY GA
1100 PM EST SUN JAN 25 2015

NOTE: "FAIR" INDICATES FEW OR NO CLOUDS BELOW 12,000 FEET WITH NO
SIGNIFICANT WEATHER AND/OR OBSTRUCTIONS TO VISIBILITY.

* = USE WITH CAUTION. THE STATIONS MARKED WITH AN ASTERISK MAY NOT
REPORT WEATHER SUCH AS PRECIPITATION, FOG, OR THUNDER AND ARE NOT
QUALITY CONTROLLED BY NWS.

THE REMARK "TC" DENOTES TEMPERATURE READING IN DEGREES CELSIUS.

GAZ001>058-260500-
NORTH GEORGIA

CITY           SKY/WX    TMP DP  RH WIND       PRES   REMARKS
ATLANTA        LGT RAIN  47  42  83 N10       29.74F
ATHENS         CLOUDY    49  31  49 VRB3      29.74F
CHAMBLEE       LGT RAIN  45  42  89 W9        29.77R
PEACHTREE CITY MOCLDY    46  40  79 NW6       29.77S
ROME           CLOUDY    47  43  86 SW6       29.73S
WEST ATLANTA   LGT RAIN  46  42  86 CALM      29.75F
GAINESVILLE    LGT RAIN  47  40  76 W7        29.76S
CARTERSVILLE   CLOUDY    45  42  89 CALM      29.75F


CITY           SKY/WX    TMP DP  RH WIND       PRES   REMARKS
DALTON*        MOCLDY    46  41  81 CALM      29.72F
MARIETTA       CLOUDY    45  43  94 VRB1      29.74F
KENNESAW*      CLOUDY   N/A N/A N/A SW6       29.75F
$$

GAZ059>098-102>109-260500-
CENTRAL GEORGIA

CITY           SKY/WX    TMP DP  RH WIND       PRES   REMARKS
AUGUSTA-BUSH   PTCLDY    43  33  68 SE5       29.79F
AUGUSTA-DANIEL PTCLDY    50  32  50 S5        29.79F
COLUMBUS       MOCLDY    51  37  58 W13G18    29.82R
MACON          CLEAR     49  41  74 SW7       29.78F
ROBINS AFB     CLEAR     45  39  78 S6        29.75F


CITY           SKY/WX    TMP DP  RH WIND       PRES   REMARKS
LAGRANGE*      CLOUDY    50  47  90 W5        29.79F
SYLVANIA*      CLEAR     43  38  82 S3        29.84F
MILLEDGEVILLE* CLEAR     45  37  76 CALM      29.78S
$$

GAZ099>101-110>166-260500-
SOUTH GEORGIA

CITY           SKY/WX    TMP DP  RH WIND       PRES   REMARKS
SAVANNAH       CLEAR     50  38  63 SW9       29.87F
VALDOSTA       MOCLDY    51  47  86 S8        29.87F
ALMA           PTCLDY    50  43  77 S9        29.85F
ST SIMONS      PTCLDY    53  42  66 SW10      29.89F
FT STEWART     CLEAR     46  38  73 VRB2      29.85F
ALBANY         CLEAR     51  45  79 SW6       29.85F
HUNTER AFB     CLEAR     51  41  70 SW6       29.85F
MOODY AFB      MOCLDY    52  47  83 S10       29.85F
BRUNSWICK      PTCLDY    54  43  66 SW10G17   29.89F


CITY           SKY/WX    TMP DP  RH WIND       PRES   REMARKS
BAINBRIDGE*    CLEAR     54  50  87 S7        29.85S
MOULTRIE*      CLEAR     50  46  87 S5        29.86F
VIDALIA*       PTCLDY    50  41  71 SW9       29.82F
WAYCROSS*      PTCLDY    54  48  82 SW8       29.87S
DOUGLAS*       MOCLDY    54  46  76 S8        29.86F
$$



USA.gov is the U.S. government's official web portal to all federal, state and local government web resources and services.